Showing default

DIADEME 2, 2680

Orbit data source: Space-Track

DIADEME 2, 2680 is a payload satellite owned by CNES (FR) in LEO that was launched on Wed, 15 Feb 1967 UTC via a DIAMANT A launch vehicle from the Hamma Guira Space Track Range (HGSTR). Payload-class satellites include a variety of spacecraft equipped with specific instruments for various scientific and technological missions. These include communications satellites like Starlink; space stations such as the ISS; scientific satellites like the Hubble; Earth observation satellites from companies like Planet Labs, Umbra, and HawkEye 360; GPS; miniature CubeSats for education and research; and military/defense satellites.

Loading next visibility...
Identifier
2680, 1967-014A
Orbit
LEO
Country
Flag of FRFR
Related business
Manufacturer
CNES
Mission
Spacecraft
Bus & Motor
D-1, Unknown motor
Mass
23 kg wet, 23 kg dry
Launch date (UTC)
1967-02-15 (59 years ago)
Launch vehicle
DIAMANT A
Launch site
Hamma Guira Space Track Range (HGSTR)
Object type
Payload
Rocket body
Debris
Shape & HBR
Unknown
Radar Cross Section
Medium (>0.1 m² and <1 m²)

Expand to show TLE details & history
Last TLE update: 21 hours ago

TLE from 21 hours ago
0 DIADEME 2
1 02680U 67014A   25348.91712359  .00001056  00000-0  46305-3 0  9996
2 02680  39.4346 198.5955 0699786  71.5025 296.0421 13.41484984851211
Epoch: 2025-12-14T22:00Z
TLE epoch observation values (Epoch: 2025-12-14T22:00:39.478Z)
Latitude
-0.00001°
Longitude
144.60783°
Altitude
904.245 km
Speed
7.499 km/s
True Right ascension
13h 14m 22s
True Declination
0° 00' 00"
Sunlit
Object was in daylight at epoch
Visualization orbit readout
Latitude
Unknown
Longitude
Unknown
Altitude
Unknown
Speed
Unknown
Apparent Right ascension
Unknown
Apparent Declination
Unknown
Sunlit
N/A
Visualization observer readout
Local Sidereal Time
18:03:07
Azimuth
Unknown
Elevation
Unknown
Doppler factor
Unknown
Orbital elements
Apogee altitude
1,629.835 km
Perigee altitude
582.362 km
Semi-major axis
7,484.236 km
Eccentricity
0.06998
Inclination
39.4346°
RAAN
198.5955°
Arg. of periapsis
71.5025°
True anomaly
288.57136°
Mean anomaly
296.0421°
Eccentric anomaly
292.33338°
Mean motion
3.35214 °/min
Orbital period
107.39 mins
BSTAR
0.00046305
Loading maneuver chart data...
Computing Atmospheric mass density...
Loading historical data...
Loading historical data...
Loading historical data...
Loading historical data...
Loading historical data...
Loading historical data...
Loading historical data...

Documentation

Showing up to 5 results
|